| time (UTC) | temp F | wind direction | speed MPH | gust MPH | rain 1hr in | rain 24hr in | rain mn in | humidity % | barometer mb |
| 20260905033111 | 70 | 355 | 0.0 | 3.0 | 0.00 | 0.00 | 0.00 | 43 | 1032.0 |
| 20260905031600 | 70 | 19 | 0.0 | 4.0 | 0.00 | 0.00 | 0.00 | 43 | 1031.9 |
| 20260905030059 | 70 | 355 | 0.0 | 4.0 | 0.00 | 0.00 | 0.00 | 41 | 1031.8 |
| 20260905024556 | 69 | 333 | 0.0 | 2.0 | 0.00 | 0.00 | 0.00 | 40 | 1031.9 |
| 20260905023055 | 70 | 200 | 0.0 | 0.0 | 0.00 | 0.00 | 0.00 | 39 | 1031.7 |
| 20260905021555 | 71 | 200 | 0.0 | 0.0 | 0.00 | 0.00 | 0.00 | 38 | 1031.3 |
| 20260905020054 | 71 | 200 | 0.0 | 0.0 | 0.00 | 0.00 | 0.00 | 36 | 1031.1 |
| 20260905014554 | 72 | 200 | 0.0 | 0.0 | 0.00 | 0.00 | 0.00 | 36 | 1031.0 |
| 20260905013109 | 72 | 200 | 0.0 | 0.0 | 0.00 | 0.00 | 0.00 | 35 | 1030.8 |
| 20260905011555 | 73 | 200 | 0.0 | 0.0 | 0.00 | 0.00 | 0.00 | 35 | 1030.9 |
| 20260905010054 | 74 | 200 | 0.0 | 0.0 | 0.00 | 0.00 | 0.00 | 34 | 1030.9 |
| 20260905004630 | 75 | 200 | 0.0 | 0.0 | 0.00 | 0.00 | 0.00 | 33 | 1030.9 |
| 20260905003052 | 76 | 200 | 0.0 | 1.0 | 0.00 | 0.00 | 0.00 | 32 | 1030.9 |
| 20260905001558 | 77 | 200 | 0.0 | 0.0 | 0.00 | 0.00 | 0.00 | 30 | 1030.9 |
| 20260905000052 | 78 | 200 | 0.0 | 0.0 | 0.00 | 0.00 | 0.00 | 29 | 1030.9 |
| 20260904234549 | 78 | 198 | 0.0 | 2.0 | 0.00 | 0.00 | 0.00 | 27 | 1030.7 |
| 20260904233049 | 79 | 198 | 0.0 | 0.0 | 0.00 | 0.00 | 0.00 | 27 | 1030.6 |
| 20260904231547 | 79 | 198 | 0.0 | 1.0 | 0.00 | 0.00 | 0.00 | 25 | 1030.6 |
| 20260904230046 | 79 | 198 | 0.0 | 3.0 | 0.00 | 0.00 | 0.00 | 26 | 1030.5 |
| 20260904224544 | 78 | 198 | 0.0 | 3.0 | 0.00 | 0.00 | 0.00 | 26 | 1030.5 |
| 20260904223045 | 80 | 198 | 0.0 | 4.0 | 0.00 | 0.00 | 0.00 | 25 | 1030.6 |
| 20260904221549 | 81 | 198 | 1.0 | 4.0 | 0.00 | 0.00 | 0.00 | 24 | 1030.5 |
| 20260904220043 | 80 | 197 | 0.0 | 2.0 | 0.00 | 0.00 | 0.00 | 24 | 1030.6 |
| 20260904214542 | 82 | 197 | 0.0 | 3.0 | 0.00 | 0.00 | 0.00 | 24 | 1030.6 |
| 20260904213042 | 82 | 196 | 0.0 | 3.0 | 0.00 | 0.00 | 0.00 | 24 | 1030.6 |
| 20260904211539 | 83 | 197 | 0.0 | 4.0 | 0.00 | 0.00 | 0.00 | 24 | 1030.8 |
| 20260904210034 | 82 | 193 | 0.0 | 4.0 | 0.00 | 0.00 | 0.00 | 24 | 1030.9 |
| 20260904204533 | 82 | 187 | 0.0 | 3.0 | 0.00 | 0.00 | 0.00 | 22 | 1031.1 |
| 20260904203033 | 81 | 187 | 0.0 | 5.0 | 0.00 | 0.00 | 0.00 | 24 | 1031.2 |
| 20260904201528 | 80 | 173 | 0.0 | 3.0 | 0.00 | 0.00 | 0.00 | 24 | 1031.4 |
| 20260904200026 | 80 | 199 | 1.0 | 5.0 | 0.00 | 0.00 | 0.00 | 23 | 1031.7 |
| 20260904194530 | 79 | 192 | 0.0 | 2.0 | 0.00 | 0.00 | 0.00 | 26 | 1031.6 |
| 20260904193024 | 77 | 190 | 0.0 | 2.0 | 0.00 | 0.00 | 0.00 | 26 | 1031.7 |
| 20260904191524 | 78 | 190 | 1.0 | 5.0 | 0.00 | 0.00 | 0.00 | 25 | 1031.7 |
| 20260904190021 | 81 | 205 | 0.0 | 6.0 | 0.00 | 0.00 | 0.00 | 24 | 1031.9 |
| 20260904184524 | 81 | 190 | 1.0 | 5.0 | 0.00 | 0.00 | 0.00 | 24 | 1032.0 |
| 20260904183016 | 80 | 196 | 1.0 | 7.0 | 0.00 | 0.00 | 0.00 | 24 | 1032.0 |
| 20260904181521 | 79 | 182 | 0.0 | 2.0 | 0.00 | 0.00 | 0.00 | 24 | 1032.1 |
| 20260904180033 | 78 | 181 | 0.0 | 2.0 | 0.00 | 0.00 | 0.00 | 23 | 1032.4 |
| 20260904174514 | 79 | 188 | 1.0 | 6.0 | 0.00 | 0.00 | 0.00 | 22 | 1032.5 |
| 20260904173017 | 79 | 182 | 0.0 | 3.0 | 0.00 | 0.00 | 0.00 | 22 | 1032.6 |
| 20260904171514 | 77 | 182 | 0.0 | 3.0 | 0.00 | 0.00 | 0.00 | 25 | 1032.7 |
| 20260904170005 | 77 | 181 | 0.0 | 4.0 | 0.00 | 0.00 | 0.00 | 23 | 1032.7 |
| 20260904164502 | 76 | 180 | 2.0 | 5.0 | 0.00 | 0.00 | 0.00 | 26 | 1032.9 |
| 20260904163100 | 75 | 166 | 0.0 | 4.0 | 0.00 | 0.00 | 0.00 | 27 | 1033.0 |
| 20260904161559 | 73 | 161 | 0.0 | 0.0 | 0.00 | 0.00 | 0.00 | 30 | 1033.1 |
| 20260904160054 | 73 | 161 | 0.0 | 3.0 | 0.00 | 0.00 | 0.00 | 29 | 1033.2 |
| 20260904154552 | 71 | 161 | 0.0 | 0.0 | 0.00 | 0.00 | 0.00 | 33 | 1033.2 |
| 20260904153054 | 68 | 161 | 0.0 | 0.0 | 0.00 | 0.00 | 0.00 | 38 | 1033.2 |
| 20260904151540 | 65 | 161 | 0.0 | 0.0 | 0.00 | 0.00 | 0.00 | 40 | 1033.1 |
| 20260904150037 | 62 | 161 | 0.0 | 0.0 | 0.00 | 0.00 | 0.00 | 45 | 1033.1 |
| 20260904144532 | 60 | 161 | 0.0 | 0.0 | 0.00 | 0.00 | 0.00 | 54 | 1033.1 |
| 20260904143030 | 55 | 161 | 0.0 | 0.0 | 0.00 | 0.00 | 0.00 | 59 | 1033.1 |
| 20260904141529 | 53 | 161 | 0.0 | 0.0 | 0.00 | 0.00 | 0.00 | 61 | 1033.4 |
| 20260904140027 | 51 | 161 | 0.0 | 0.0 | 0.00 | 0.00 | 0.00 | 65 | 1033.3 |
| 20260904134525 | 50 | 161 | 0.0 | 0.0 | 0.00 | 0.00 | 0.00 | 65 | 1033.2 |
| 20260904133031 | 48 | 161 | 0.0 | 0.0 | 0.00 | 0.00 | 0.00 | 65 | 1033.0 |
| 20260904131522 | 47 | 161 | 0.0 | 0.0 | 0.00 | 0.00 | 0.00 | 64 | 1033.0 |
| 20260904130021 | 47 | 161 | 0.0 | 0.0 | 0.00 | 0.00 | 0.00 | 64 | 1032.7 |
| 20260904124519 | 47 | 161 | 0.0 | 0.0 | 0.00 | 0.00 | 0.00 | 63 | 1032.6 |
| 20260904123018 | 47 | 161 | 0.0 | 0.0 | 0.00 | 0.00 | 0.00 | 63 | 1032.2 |
| 20260904121514 | 48 | 161 | 0.0 | 0.0 | 0.00 | 0.00 | 0.00 | 62 | 1032.0 |
| 20260904120018 | 48 | 161 | 0.0 | 0.0 | 0.00 | 0.00 | 0.00 | 62 | 1032.0 |
| 20260904114511 | 48 | 161 | 0.0 | 0.0 | 0.00 | 0.00 | 0.00 | 61 | 1031.9 |
| 20260904113009 | 48 | 161 | 0.0 | 0.0 | 0.00 | 0.00 | 0.00 | 63 | 1031.8 |
| 20260904111510 | 48 | 161 | 0.0 | 0.0 | 0.00 | 0.00 | 0.00 | 61 | 1031.7 |
| 20260904110002 | 49 | 161 | 0.0 | 0.0 | 0.00 | 0.00 | 0.00 | 61 | 1031.5 |
| 20260904104614 | 49 | 161 | 0.0 | 0.0 | 0.00 | 0.00 | 0.00 | 61 | 1031.4 |
| 20260904103100 | 50 | 161 | 0.0 | 0.0 | 0.00 | 0.00 | 0.00 | 60 | 1031.2 |
| 20260904101556 | 50 | 161 | 0.0 | 0.0 | 0.00 | 0.00 | 0.00 | 61 | 1031.1 |
| 20260904100115 | 50 | 161 | 0.0 | 0.0 | 0.00 | 0.00 | 0.00 | 61 | 1031.2 |
| 20260904094600 | 50 | 161 | 0.0 | 0.0 | 0.00 | 0.00 | 0.00 | 60 | 1031.1 |
| 20260904093053 | 50 | 161 | 0.0 | 0.0 | 0.00 | 0.00 | 0.00 | 60 | 1031.1 |
| 20260904091551 | 51 | 161 | 0.0 | 0.0 | 0.00 | 0.00 | 0.00 | 59 | 1031.0 |
| 20260904090050 | 51 | 161 | 0.0 | 0.0 | 0.00 | 0.00 | 0.00 | 61 | 1031.0 |
| 20260904084549 | 51 | 161 | 0.0 | 0.0 | 0.00 | 0.00 | 0.00 | 60 | 1031.0 |
| 20260904083050 | 51 | 161 | 0.0 | 0.0 | 0.00 | 0.00 | 0.00 | 60 | 1031.0 |
| 20260904081545 | 52 | 161 | 0.0 | 0.0 | 0.00 | 0.00 | 0.00 | 60 | 1031.0 |
| 20260904080043 | 52 | 161 | 0.0 | 0.0 | 0.00 | 0.00 | 0.00 | 59 | 1030.9 |
| 20260904074543 | 52 | 161 | 0.0 | 0.0 | 0.00 | 0.00 | 0.00 | 59 | 1030.8 |
| 20260904073039 | 53 | 161 | 0.0 | 0.0 | 0.00 | 0.00 | 0.00 | 58 | 1030.9 |
| 20260904071536 | 54 | 161 | 0.0 | 0.0 | 0.00 | 0.00 | 0.00 | 56 | 1031.0 |
| 20260904070040 | 54 | 161 | 0.0 | 0.0 | 0.00 | 0.00 | 0.00 | 55 | 1031.0 |
| 20260904064530 | 55 | 161 | 0.0 | 0.0 | 0.00 | 0.00 | 0.00 | 54 | 1031.2 |
| 20260904063028 | 55 | 161 | 0.0 | 0.0 | 0.00 | 0.00 | 0.00 | 53 | 1031.1 |
| 20260904061529 | 56 | 161 | 0.0 | 0.0 | 0.00 | 0.00 | 0.00 | 52 | 1031.1 |
| 20260904060026 | 57 | 161 | 0.0 | 0.0 | 0.00 | 0.00 | 0.00 | 51 | 1031.2 |
| 20260904054523 | 58 | 161 | 0.0 | 0.0 | 0.00 | 0.00 | 0.00 | 50 | 1031.2 |
| 20260904053033 | 58 | 161 | 0.0 | 0.0 | 0.00 | 0.00 | 0.00 | 49 | 1031.0 |
| 20260904051519 | 58 | 161 | 0.0 | 0.0 | 0.00 | 0.00 | 0.00 | 49 | 1031.0 |
| 20260904050030 | 59 | 161 | 0.0 | 0.0 | 0.00 | 0.00 | 0.00 | 49 | 1031.0 |
| 20260904044521 | 60 | 161 | 0.0 | 0.0 | 0.00 | 0.00 | 0.00 | 47 | 1031.0 |
| 20260904043017 | 60 | 161 | 0.0 | 0.0 | 0.00 | 0.00 | 0.00 | 47 | 1031.1 |
| 20260904041518 | 60 | 161 | 0.0 | 0.0 | 0.00 | 0.00 | 0.00 | 47 | 1031.2 |
| 20260904040016 | 61 | 161 | 0.0 | 0.0 | 0.00 | 0.00 | 0.00 | 45 | 1031.2 |